TimeEST,TemperatureF,Dew PointF,Humidity,Sea Level PressureIn,VisibilityMPH,Wind Direction,Wind SpeedMPH,Gust SpeedMPH,PrecipitationIn,Events,Conditions,WindDirDegrees,DateUTC
12:53 AM,34.0,21.9,61,30.04,10.0,NNE,5.8,-,N/A,,Clear,30,2012-11-07 05:53:00
1:53 AM,35.1,21.0,57,30.01,10.0,North,8.1,-,N/A,,Clear,10,2012-11-07 06:53:00
2:53 AM,35.1,21.0,57,29.99,10.0,NNE,12.7,-,N/A,,Overcast,30,2012-11-07 07:53:00
3:53 AM,34.0,21.9,61,29.97,10.0,NNE,10.4,-,N/A,,Mostly Cloudy,20,2012-11-07 08:53:00
4:53 AM,35.1,21.0,57,29.96,10.0,NNE,8.1,-,N/A,,Overcast,30,2012-11-07 09:53:00
5:53 AM,35.1,19.9,54,29.97,10.0,ENE,8.1,-,N/A,,Overcast,60,2012-11-07 10:53:00
6:53 AM,34.0,19.9,56,29.99,10.0,NE,11.5,-,N/A,,Clear,50,2012-11-07 11:53:00
7:53 AM,35.1,19.0,52,29.99,10.0,NNE,9.2,-,N/A,,Clear,30,2012-11-07 12:53:00
8:53 AM,36.0,21.9,57,29.97,10.0,NE,9.2,-,N/A,,Clear,40,2012-11-07 13:53:00
9:53 AM,37.9,24.1,57,29.94,10.0,NE,6.9,-,N/A,,Scattered Clouds,40,2012-11-07 14:53:00
10:53 AM,39.0,26.1,60,29.93,10.0,NE,15.0,21.9,N/A,,Clear,40,2012-11-07 15:53:00
11:53 AM,41.0,26.1,55,29.92,10.0,NE,15.0,23.0,N/A,,Mostly Cloudy,50,2012-11-07 16:53:00
12:53 PM,41.0,26.1,55,29.92,10.0,NE,12.7,-,N/A,,Mostly Cloudy,50,2012-11-07 17:53:00
1:53 PM,42.1,25.0,51,29.91,10.0,NE,8.1,-,N/A,,Overcast,40,2012-11-07 18:53:00
2:53 PM,42.1,26.1,53,29.92,10.0,North,8.1,-,N/A,,Overcast,350,2012-11-07 19:53:00
3:53 PM,42.1,25.0,51,29.92,10.0,North,9.2,-,N/A,,Overcast,10,2012-11-07 20:53:00
4:53 PM,41.0,25.0,53,29.92,10.0,North,11.5,-,N/A,,Overcast,10,2012-11-07 21:53:00
5:53 PM,41.0,23.0,49,29.93,10.0,North,10.4,-,N/A,,Mostly Cloudy,10,2012-11-07 22:53:00
6:53 PM,39.9,23.0,51,29.92,10.0,NNW,11.5,-,0.00,Rain,Light Rain,340,2012-11-07 23:53:00
7:53 PM,39.9,24.1,53,29.93,10.0,NNW,12.7,-,0.00,,Overcast,340,2012-11-08 00:53:00
8:53 PM,37.9,24.1,57,29.93,5.0,North,12.7,-,0.00,Snow,Light Snow,10,2012-11-08 01:53:00
9:53 PM,37.9,24.1,57,29.93,10.0,North,6.9,-,0.00,,Overcast,10,2012-11-08 02:53:00
10:53 PM,37.9,23.0,55,29.91,10.0,NNW,12.7,-,N/A,,Overcast,340,2012-11-08 03:53:00
11:53 PM,39.0,19.0,45,29.89,10.0,NNW,12.7,21.9,N/A,,Overcast,330,2012-11-08 04:53:00